Location: Isles
(48.9125°N, 2.8272°E)
Time: 10:17:39
(UTC+00:00)

Cosmos 1844 - Pass Details

Date: 03 February 2023
Orbit: 822 x 868 km, 70.9° (Epoch: 28 March)

Event Time Altitude Azimuth Distance (km) Brightness Sun altitude
Rises 17:54:54 0° 332° (NNW) 3,465 7.1 -11.1°
Reaches altitude 10° 17:57:25 10° 336° (NNW) 2,524 6.3 -11.5°
Maximum altitude 18:03:11 63° 58° (ENE) 966 3.7 -12.4°
Drops below altitude 10° 18:08:53 10° 139° (SE) 2,496 5.9 -13.3°
Sets 18:11:22 0° 143° (SE) 3,424 6.6 -13.7°
